Location: Arboyeti
(42.1122°N, 44.6017°E)
Time: 02:55:02
(UTC+00:00)

ISS - Pass Details

Date: 29 September 2021
Orbit: 417 x 423 km, 51.6° (Epoch: 28 October)

Event Time Altitude Azimuth Distance (km) Brightness Sun altitude
Rises 15:05:44 0° 300° (WNW) 2,364 1.3 -4.4°
Reaches altitude 10° 15:08:25 10° 323° (NW) 1,501 -0.4 -4.9°
Maximum altitude 15:10:38 16° 4° (N) 1,178 -1.5 -5.3°
Drops below altitude 10° 15:12:51 10° 45° (NE) 1,502 -1.3 -5.7°
Enters shadow 15:14:21 - 60° (ENE) 1,957 -0.9 -6.0°
